Regional Weather Roundup
Issued by NWS

Home | Current Version | Previous Version | Graphics & Text | Print | Product List | Glossary Off
Versions: 1 2 3 4 5 6 7 8 9 10 11 12 13 14 15 16 17 18 19 20 21 22 23 24 25 26 27 28 29 30 31 32 33 34 35 36 37 38 39 40 41 42 43 44 45 46 47 48 49 50

166
ASUS43 KTOP 290408
RWRKS

WEATHER ROUNDUP FOR KANSAS
NATIONAL WEATHER SERVICE GOODLAND KS
1100 PM CDT THU APR 28 2016

NOTE:  "FAIR" INDICATES FEW OR NO CLOUDS BELOW 12,000 FEET WITH NO
SIGNIFICANT WEATHER AND/OR OBSTRUCTIONS TO VISIBILITY.

KSZ001>006-013>018-027>032-041>047-290500-
NORTHWEST KANSAS

CITY           SKY/WX    TMP DP  RH WIND       PRES   REMARKS
GOODLAND       CLOUDY    41  37  86 NE9       30.05S
HAYS           MOCLDY    50  37  62 E10       30.07R
HILL CITY      CLOUDY    48  42  80 NE9       30.09R
RUSSELL        CLOUDY    49  44  83 NE9       30.08R
$$

KSZ061>065-074>080-084>089-290500-
SOUTHWEST KANSAS

CITY           SKY/WX    TMP DP  RH WIND       PRES   REMARKS
DODGE CITY     CLOUDY    52  41  66 NE14      30.01R
ELKHART          N/A     52  43  72 NE15        N/A
GARDEN CITY    PTCLDY    51  39  63 NE18      29.99R
GREAT BEND     CLOUDY    52  43  71 NE13      30.05F
LIBERAL        CLOUDY    52  43  71 E20G28    29.93F
PRATT          RAIN      50  47  92 E9G16     30.03S
$$

KSZ066>073-081>083-090>101-290500-
SOUTHEAST KANSAS

CITY           SKY/WX    TMP DP  RH WIND       PRES   REMARKS
CHANUTE        CLOUDY    60  49  66 N8        30.00R
COFFEYVILLE    CLOUDY    58  52  80 N6        29.97S
HUTCHINSON     RAIN      54  49  83 N13       30.05S
MEDICINE LODGE   N/A     54  51  90 N17       30.00F
NEWTON         CLOUDY    54  45  71 N8        30.09R
PARSONS        CLOUDY    57  53  86 CALM      30.00R
WICHITA INTL   CLOUDY    60  48  64 NE13      30.02R
WICHITA JABRA  CLOUDY    57  49  74 N8        30.04R
WICHITA MCCONL CLOUDY    59  49  68 NE13      30.03R
WINFIELD       CLOUDY    60  49  66 NE9       30.00S
$$

KSZ007>012-019>026-033>040-048>060-102>105-290500-
NORTHEAST KANSAS

CITY           SKY/WX    TMP DP  RH WIND       PRES   REMARKS
CONCORDIA      CLOUDY    50  42  74 NE7       30.10R
EMPORIA        CLOUDY    54  47  77 N10       30.06R
LAWRENCE       CLOUDY    49  45  86 N3        30.08R
MANHATTAN      CLOUDY    52  44  74 N3        30.09R
MARYSVILLE     CLOUDY    50  43  76 N6        30.10S
OLATHE IND     CLOUDY    49  46  90 N7        30.07R
OLATHE EXE     CLOUDY    51  45  79 N5        30.06R
SALINA         CLOUDY    54  45  71 NE8       30.10R
TOPEKA BILLARD MOCLDY    51  46  83 NW3       30.08R
TOPEKA FORBES  CLOUDY    53  46  77 N6        30.07R
$$




USA.gov is the U.S. government's official web portal to all federal, state and local government web resources and services.